• In India
  • List of Countries
  • For 7 days
  • Water Temperature
  • Satellite Maps
  • Weather Map
  • Weather Widgets
  • user-avatar
    Login

    Hourly Weather Gjirokaster

    Today, 11 December, Tuesday

    Time Temperature Precipitation Wind Pressure Humidity
    00:00 -2°C° 0 mm 2 mps 646 mmHg 79%
    01:00 0°C° 0 mm 1 mps 645 mmHg 78%
    02:00 -3°C° 0 mm 2 mps 645 mmHg 78%
    03:00 -3°C° 0 mm 2 mps 646 mmHg 78%
    04:00 -3°C° 0 mm 2 mps 646 mmHg 78%
    05:00 -3°C° 0 mm 2 mps 646 mmHg 78%
    06:00 -3°C° 0 mm 2 mps 646 mmHg 78%
    07:00 -3°C° 0 mm 2 mps 646 mmHg 78%
    08:00 -2°C° 0 mm 2 mps 647 mmHg 73%
    09:00 -1°C° 0 mm 2 mps 647 mmHg 68%
    10:00 +1°C° 0 mm 2 mps 648 mmHg 63%
    11:00 +1°C° 0 mm 2 mps 648 mmHg 58%
    12:00 +1°C° 0 mm 3 mps 648 mmHg 54%
    13:00 +2°C° 0 mm 3 mps 648 mmHg 50%
    14:00 +1°C° 0 mm 3 mps 648 mmHg 54%
    15:00 0°C° 0 mm 3 mps 648 mmHg 58%
    16:00 -2°C° 0 mm 4 mps 648 mmHg 62%
    17:00 -2°C° 0 mm 3 mps 648 mmHg 64%
    18:00 -4°C° 0 mm 3 mps 648 mmHg 67%
    19:00 -4°C° 0 mm 3 mps 648 mmHg 70%
    20:00 -5°C° 0 mm 3 mps 649 mmHg 70%
    21:00 -4°C° 0 mm 2 mps 649 mmHg 70%
    22:00 -4°C° 0 mm 2 mps 649 mmHg 70%
    23:00 -4°C° 0 mm 2 mps 649 mmHg 67%

    Tomorrow, 12 December, Wednesday

    Time Temperature Precipitation Wind Pressure Humidity
    00:00 -5°C° 0 mm 2 mps 649 mmHg 65%
    01:00 -5°C° 0 mm 2 mps 649 mmHg 62%
    02:00 -5°C° 0 mm 2 mps 649 mmHg 60%
    03:00 -5°C° 0 mm 2 mps 649 mmHg 57%
    04:00 -3°C° 0 mm 1 mps 649 mmHg 54%
    05:00 -3°C° 0 mm 1 mps 650 mmHg 52%
    06:00 -3°C° 0 mm 1 mps 650 mmHg 49%
    07:00 -3°C° 0 mm 1 mps 650 mmHg 47%
    08:00 -1°C° 0 mm 1 mps 651 mmHg 41%
    09:00 0°C° 0 mm 1 mps 651 mmHg 36%
    10:00 +2°C° 0 mm 1 mps 652 mmHg 30%
    11:00 +2°C° 0 mm 1 mps 652 mmHg 30%
    12:00 +2°C° 0 mm 1 mps 652 mmHg 29%
    13:00 +3°C° 0 mm 1 mps 652 mmHg 29%
    14:00 +2°C° 0 mm 1 mps 651 mmHg 34%
    15:00 +1°C° 0 mm 1 mps 651 mmHg 39%
    16:00 0°C° 0 mm 1 mps 651 mmHg 44%
    17:00 -1°C° 0 mm 1 mps 651 mmHg 44%
    18:00 -1°C° 0 mm 1 mps 651 mmHg 44%
    19:00 -2°C° 0 mm 1 mps 651 mmHg 44%
    20:00 -2°C° 0 mm 1 mps 651 mmHg 44%
    21:00 -4°C° 0 mm 2 mps 651 mmHg 44%
    22:00 -4°C° 0 mm 2 mps 651 mmHg 43%
    23:00 -4°C° 0 mm 2 mps 651 mmHg 42%

    Day after tomorrow, 13 December, Thursday

    Time Temperature Precipitation Wind Pressure Humidity
    00:00 -4°C° 0 mm 2 mps 651 mmHg 42%
    01:00 -4°C° 0 mm 2 mps 651 mmHg 41%
    02:00 -5°C° 0 mm 3 mps 650 mmHg 41%
    03:00 -4°C° 0 mm 3 mps 650 mmHg 41%
    04:00 -4°C° 0 mm 3 mps 650 mmHg 41%
    05:00 -4°C° 0.1 mm 3 mps 650 mmHg 43%
    06:00 -4°C° 0.1 mm 3 mps 649 mmHg 45%
    07:00 -4°C° 0.1 mm 3 mps 649 mmHg 46%
    08:00 -4°C° 0.5 mm 3 mps 649 mmHg 56%
    09:00 -4°C° 0.5 mm 4 mps 649 mmHg 65%
    10:00 -4°C° 0.5 mm 4 mps 649 mmHg 74%
    11:00 -4°C° 0.7 mm 4 mps 648 mmHg 79%
    12:00 -4°C° 0.7 mm 4 mps 648 mmHg 83%
    13:00 -4°C° 0.7 mm 4 mps 648 mmHg 88%
    14:00 -4°C° 0.3 mm 3 mps 648 mmHg 88%
    15:00 -4°C° 0.3 mm 3 mps 648 mmHg 88%
    16:00 -4°C° 0.3 mm 3 mps 648 mmHg 88%
    17:00 -4°C° 0.2 mm 3 mps 648 mmHg 88%
    18:00 -4°C° 0.2 mm 3 mps 648 mmHg 88%
    19:00 -4°C° 0.2 mm 3 mps 648 mmHg 88%
    20:00 -4°C° 0 mm 3 mps 648 mmHg 87%
    21:00 -4°C° 0 mm 3 mps 648 mmHg 87%
    22:00 -4°C° 0 mm 3 mps 648 mmHg 86%
    23:00 -4°C° 0 mm 3 mps 648 mmHg 86%

    14 December, Friday

    Time Temperature Precipitation Wind Pressure Humidity
    00:00 -4°C° 0 mm 3 mps 648 mmHg 87%
    01:00 -2°C° 0 mm 3 mps 648 mmHg 87%
    02:00 -2°C° 0.3 mm 3 mps 648 mmHg 88%
    03:00 -2°C° 0.3 mm 3 mps 648 mmHg 89%
    04:00 -2°C° 0.3 mm 3 mps 648 mmHg 91%
    05:00 -1°C° 0.7 mm 3 mps 648 mmHg 91%
    06:00 -1°C° 0.7 mm 3 mps 648 mmHg 92%
    07:00 -1°C° 0.7 mm 3 mps 648 mmHg 93%
    08:00 -2°C° 0.5 mm 4 mps 648 mmHg 92%
    09:00 -1°C° 0.5 mm 4 mps 649 mmHg 92%
    10:00 -1°C° 0.5 mm 4 mps 649 mmHg 91%
    11:00 0°C° 0.2 mm 4 mps 649 mmHg 91%
    12:00 +1°C° 0.2 mm 4 mps 649 mmHg 90%
    13:00 +3°C° 0.2 mm 4 mps 649 mmHg 89%
    14:00 +3°C° 0.3 mm 4 mps 649 mmHg 91%
    15:00 +1°C° 0.3 mm 4 mps 649 mmHg 92%
    16:00 +1°C° 0.3 mm 4 mps 648 mmHg 93%
    17:00 +1°C° 0.6 mm 4 mps 648 mmHg 93%
    18:00 0°C° 0.6 mm 4 mps 649 mmHg 93%
    19:00 0°C° 0.6 mm 4 mps 649 mmHg 92%
    20:00 0°C° 0.2 mm 4 mps 649 mmHg 92%
    21:00 0°C° 0.2 mm 5 mps 649 mmHg 91%
    22:00 0°C° 0.2 mm 5 mps 649 mmHg 90%
    23:00 0°C° 0.2 mm 5 mps 648 mmHg 89%

    15 December, Saturday

    Time Temperature Precipitation Wind Pressure Humidity
    00:00 0°C° 0.2 mm 4 mps 648 mmHg 89%
    01:00 0°C° 0.2 mm 4 mps 648 mmHg 88%
    02:00 0°C° 0.1 mm 4 mps 647 mmHg 87%
    03:00 0°C° 0.1 mm 4 mps 647 mmHg 87%
    04:00 0°C° 0.1 mm 4 mps 647 mmHg 86%
    05:00 0°C° 0.4 mm 4 mps 647 mmHg 87%
    06:00 0°C° 0.4 mm 4 mps 647 mmHg 87%
    07:00 0°C° 0.4 mm 4 mps 646 mmHg 88%
    08:00 0°C° 0.5 mm 4 mps 647 mmHg 87%
    09:00 +1°C° 0.5 mm 4 mps 647 mmHg 87%
    10:00 +1°C° 0.5 mm 4 mps 647 mmHg 87%
    11:00 +1°C° 0.3 mm 4 mps 647 mmHg 86%
    12:00 +3°C° 0.3 mm 4 mps 647 mmHg 86%
    13:00 +3°C° 0.3 mm 4 mps 647 mmHg 85%
    14:00 +3°C° 0.2 mm 3 mps 647 mmHg 85%
    15:00 +2°C° 0.2 mm 3 mps 647 mmHg 85%
    16:00 +2°C° 0.2 mm 3 mps 647 mmHg 86%
    17:00 +3°C° 0.1 mm 2 mps 647 mmHg 85%
    18:00 +2°C° 0.1 mm 2 mps 647 mmHg 85%
    19:00 +2°C° 0.1 mm 2 mps 647 mmHg 85%
    20:00 +2°C° 0.1 mm 2 mps 647 mmHg 85%
    21:00 0°C° 0.1 mm 3 mps 647 mmHg 85%
    22:00 0°C° 0.1 mm 3 mps 648 mmHg 86%
    23:00 0°C° 0 mm 3 mps 648 mmHg 86%

    16 December, Sunday

    Time Temperature Precipitation Wind Pressure Humidity
    00:00 0°C° 0 mm 3 mps 648 mmHg 86%
    01:00 0°C° 0 mm 3 mps 647 mmHg 87%
    02:00 0°C° 0 mm 3 mps 647 mmHg 87%
    03:00 0°C° 0 mm 3 mps 647 mmHg 87%
    04:00 0°C° 0 mm 3 mps 647 mmHg 87%
    05:00 0°C° 0.1 mm 3 mps 648 mmHg 88%
    06:00 -1°C° 0.1 mm 3 mps 648 mmHg 88%
    07:00 -1°C° 0.1 mm 3 mps 648 mmHg 89%
    08:00 0°C° 0.1 mm 3 mps 649 mmHg 86%
    09:00 +1°C° 0.1 mm 3 mps 649 mmHg 83%
    10:00 +1°C° 0.1 mm 4 mps 650 mmHg 81%
    11:00 +3°C° 0 mm 4 mps 650 mmHg 78%
    12:00 +3°C° 0 mm 4 mps 650 mmHg 76%
    13:00 +4°C° 0 mm 4 mps 650 mmHg 73%
    14:00 +3°C° 0 mm 4 mps 650 mmHg 76%
    15:00 +1°C° 0 mm 4 mps 651 mmHg 78%
    16:00 +1°C° 0 mm 4 mps 651 mmHg 81%
    17:00 0°C° 0 mm 4 mps 651 mmHg 82%
    18:00 -1°C° 0 mm 4 mps 651 mmHg 83%
    19:00 -2°C° 0 mm 4 mps 652 mmHg 84%
    20:00 -1°C° 0 mm 3 mps 652 mmHg 83%
    21:00 -1°C° 0 mm 3 mps 652 mmHg 82%
    22:00 -2°C° 0 mm 3 mps 653 mmHg 82%
    23:00 -2°C° 0 mm 3 mps 653 mmHg 81%
    Show more